Location: *
(50.9167°S, 179.4000°W)
Time: 05:01:44
(UTC+00:00)

ATLAS 2AS CENTAUR R/B - Pass Details

Date: 27 June 2024
Orbit: 1019 x 1192 km, 63.7° (Epoch: 21 July)

Event Time Altitude Azimuth Distance (km) Brightness Sun altitude
Exits shadow 17:58:39 20° 220° (SW) 2,390 4.1 -18.2°
Maximum altitude 18:04:02 73° 138° (SE) 1,221 3.0 -17.4°
Drops below altitude 10° 18:11:33 10° 52° (NE) 3,118 6.2 -16.2°
Sets 18:14:19 0° 50° (NE) 4,085 7.0 -15.8°
